Location: Drawsko Pomorskie
(53.5317°N, 15.8111°E)
Time: 14:17:22
(UTC+02:00)

N. Korean satellite - Visible Passes

Search period start: 21 October 2019 00:00
Search period end: 30 October 2019 23:00
Orbit: 455 x 508 km, 97.2° (Epoch: 20 October)

Date Brightness Start Highest point End Pass type
(mag) Time Alt. Az. Time Alt. Az. Time Alt. Az.
21 Oct 9.0 06:21:29 10° NE 06:24:39 28° E 06:27:50 10° SSE visible
21 Oct 9.0 18:36:38 10° SSW 18:39:38 27° W 18:42:40 10° NW visible
22 Oct 10.0 05:56:46 10° NE 05:59:09 16° E 06:01:32 10° SE visible
23 Oct 10.5 19:22:08 10° W 19:22:48 10° W 19:23:29 10° WNW visible
24 Oct 8.1 06:38:43 10° NNE 06:42:12 43° E 06:45:43 10° S visible
24 Oct 9.7 18:54:42 10° SW 18:57:12 19° W 18:59:45 10° NW visible
25 Oct 9.3 06:13:44 10° NE 06:16:46 24° E 06:19:48 10° SSE visible
25 Oct 8.6 18:28:32 10° SSW 18:31:42 33° W 18:34:56 10° NNW visible
26 Oct 10.2 05:49:12 10° NE 05:51:13 14° E 05:53:15 10° ESE visible
27 Oct 7.1 05:56:03 10° NNE 05:59:42 67° ESE 06:03:23 10° S visible
27 Oct 10.2 18:13:12 10° WSW 18:14:49 13° W 18:16:27 10° WNW visible
28 Oct 8.4 05:30:53 10° NNE 05:34:18 36° E 05:37:45 10° SSE visible
28 Oct 9.4 17:46:27 10° SW 17:49:15 22° W 17:52:05 10° NW visible
29 Oct 9.6 05:05:59 10° NE 05:08:49 21° E 05:11:40 10° SE visible
29 Oct 8.1 17:20:27 10° S 17:23:45 40° W 17:27:08 10° NNW visible
30 Oct 10.3 04:41:44 10° ENE 04:43:14 12° E 04:44:44 10° ESE visible
